Date String (YYYY-MM-DD hh:mm:ss) UTC,Instrument flags,Ambient pressure (hPa),Sample flow (lpm),Bypass flow (lpm),Sample temperature (°C),Ambient temperature (°C),ASC tube jacket temperature (°C),LED temperature (°C),Box temperature (°C),Sample RH (%),Span deviation,Mass concentration (μg/m³),Mass concentration (μg/m³),Mass concentration (μg/m³)
DateTimeUTC,F1_M11,P_M11,Q1_M11,Q2_M11,T1_M11,T2_M11,T3_M11,T4_M11,T5_M11,U1_M11,ZSPAN_M11,X0_M11,X2_M11,X1_M11
2023-04-29 20:00:00,,0832.0,5.00,0.00,28.9,27.7,00.0,37.2,30.5,11.6,0000.0,0014.30,0004.91,0002.56
2023-04-29 20:01:00,,0832.0,4.99,0.00,28.9,27.7,00.0,37.2,30.5,11.6,0000.0,0014.13,0004.89,0002.57
2023-04-29 20:02:00,,0832.0,4.99,0.00,28.9,27.7,00.0,37.2,30.5,11.4,0000.0,0014.19,0004.89,0002.57
2023-04-29 20:03:00,,0832.0,5.00,0.00,28.9,27.7,00.0,37.2,30.5,11.2,0000.0,0012.66,0004.89,0002.56
2023-04-29 20:04:00,,0832.0,5.01,0.00,28.9,27.7,00.0,37.3,30.5,11.1,0000.0,0012.23,0004.89,0002.54
2023-04-29 20:05:00,,0832.0,5.00,0.00,28.9,27.8,00.0,37.3,30.5,11.1,0000.0,0012.18,0004.91,0002.53
2023-04-29 20:06:00,,0832.0,5.00,0.00,29.0,27.8,00.0,37.3,30.5,11.2,0000.0,0011.96,0004.89,0002.52
2023-04-29 20:07:00,,0832.0,4.99,0.00,29.0,27.8,00.0,37.3,30.6,11.2,0000.0,0011.40,0004.84,0002.51
2023-04-29 20:08:00,,0832.0,5.00,0.00,29.0,27.8,00.0,37.3,30.6,11.6,0000.0,0010.79,0004.79,0002.50
2023-04-29 20:09:00,,0831.9,4.99,0.00,29.0,27.9,00.0,37.3,30.6,11.4,0000.0,0010.72,0004.76,0002.48
2023-04-29 20:10:00,,0831.9,5.00,0.00,29.0,27.9,00.0,37.3,30.6,11.2,0000.0,0010.75,0004.76,0002.48
2023-04-29 20:11:00,,0831.9,5.00,0.00,29.1,27.9,00.0,37.3,30.6,11.4,0000.0,0010.94,0004.86,0002.50
2023-04-29 20:12:00,,0831.8,5.00,0.00,29.1,27.9,00.0,37.4,30.6,10.9,0000.0,0011.25,0004.87,0002.48
2023-04-29 20:13:00,,0831.8,5.00,0.00,29.1,27.9,00.0,37.4,30.6,11.2,0000.0,0011.09,0004.78,0002.46
2023-04-29 20:14:00,,0831.8,4.99,0.00,29.1,27.9,00.0,37.4,30.7,11.1,0000.0,0010.99,0004.74,0002.45
2023-04-29 20:15:00,,0831.8,4.99,0.00,29.1,28.0,00.0,37.4,30.7,11.0,0000.0,0010.98,0004.70,0002.45
2023-04-29 20:16:00,,0831.8,5.00,0.00,29.1,28.0,00.0,37.4,30.7,10.8,0000.0,0010.96,0004.66,0002.46
2023-04-29 20:17:00,,0831.8,5.01,0.00,29.2,28.0,00.0,37.4,30.7,11.0,0000.0,0011.01,0004.66,0002.45
2023-04-29 20:18:00,,0832.0,5.01,0.00,29.2,28.0,00.0,37.4,30.7,11.0,0000.0,0011.19,0004.70,0002.46
2023-04-29 20:19:00,,0831.8,5.00,0.00,29.2,28.0,00.0,37.5,30.8,10.8,0000.0,0011.21,0004.65,0002.46
2023-04-29 20:20:00,,0831.8,5.00,0.00,29.2,28.0,00.0,37.5,30.8,10.8,0000.0,0011.46,0004.67,0002.48
2023-04-29 20:21:00,,0831.9,5.00,0.00,29.2,28.1,00.0,37.5,30.8,10.9,0000.0,0011.75,0004.65,0002.46
2023-04-29 20:22:00,,0831.8,5.00,0.00,29.3,28.1,00.0,37.5,30.8,10.9,0000.0,0011.93,0004.55,0002.43
2023-04-29 20:23:00,,0832.1,5.01,0.00,29.3,28.1,00.0,37.5,30.8,10.7,0000.0,0012.31,0004.50,0002.41
2023-04-29 20:24:00,,0832.2,5.01,0.00,29.3,28.1,00.0,37.5,30.9,11.0,0000.0,0012.22,0004.51,0002.40
2023-04-29 20:25:00,,0832.2,4.99,0.00,29.3,28.2,00.0,37.5,30.9,10.7,0000.0,0012.23,0004.47,0002.40
2023-04-29 20:26:00,,0831.9,4.99,0.00,29.3,28.2,00.0,37.6,30.9,11.2,0000.0,0012.89,0004.51,0002.40
2023-04-29 20:27:00,,0831.7,5.00,0.00,29.3,28.2,00.0,37.6,30.9,11.3,0000.0,0013.73,0004.54,0002.41
2023-04-29 20:28:00,,0831.7,5.00,0.00,29.4,28.2,00.0,37.6,30.9,11.0,0000.0,0014.09,0004.59,0002.43
2023-04-29 20:29:00,,0831.6,5.01,0.00,29.3,28.2,00.0,37.6,30.9,10.9,0000.0,0013.91,0004.52,0002.41
2023-04-29 20:30:00,,0831.7,5.00,0.00,29.3,28.1,00.0,37.6,30.9,10.9,0000.0,0013.88,0004.55,0002.39
2023-04-29 20:31:00,,0831.7,4.99,0.00,29.3,28.1,00.0,37.6,30.9,10.8,0000.0,0013.70,0004.54,0002.35
2023-04-29 20:32:00,,0831.7,5.00,0.00,29.4,28.2,00.0,37.7,30.9,10.9,0000.0,0013.33,0004.54,0002.36
2023-04-29 20:33:00,,0831.7,5.01,0.00,29.4,28.2,00.0,37.7,30.9,11.0,0000.0,0013.01,0004.55,0002.36
2023-04-29 20:34:00,,0831.7,5.01,0.00,29.4,28.2,00.0,37.7,31.0,11.4,0000.0,0012.29,0004.52,0002.35
2023-04-29 20:35:00,,0831.7,5.01,0.00,29.4,28.2,00.0,37.7,31.0,11.3,0000.0,0012.36,0004.51,0002.36
2023-04-29 20:36:00,,0831.6,4.99,0.00,29.4,28.2,00.0,37.7,31.0,11.3,0000.0,0012.93,0004.59,0002.38
2023-04-29 20:37:00,,0831.7,5.00,0.00,29.4,28.2,00.0,37.7,31.0,11.1,0000.0,0012.96,0004.53,0002.36
2023-04-29 20:38:00,,0831.7,5.00,0.00,29.5,28.2,00.0,37.7,31.0,11.0,0000.0,0011.91,0004.48,0002.34
2023-04-29 20:39:00,,0831.7,4.99,0.00,29.5,28.2,00.0,37.7,31.0,10.8,0000.0,0011.82,0004.45,0002.31
2023-04-29 20:40:00,,0831.7,5.00,0.00,29.5,28.2,00.0,37.8,31.0,10.8,0000.0,0012.38,0004.51,0002.32
2023-04-29 20:41:00,,0831.7,5.01,0.00,29.5,28.2,00.0,37.8,31.0,10.9,0000.0,0012.52,0004.53,0002.32
2023-04-29 20:42:00,,0831.7,5.00,0.00,29.5,28.2,00.0,37.8,31.0,11.2,0000.0,0012.96,0004.50,0002.32
2023-04-29 20:43:00,,0831.7,5.00,0.00,29.5,28.3,00.0,37.8,31.1,11.4,0000.0,0012.85,0004.46,0002.31
2023-04-29 20:44:00,,0831.6,5.00,0.00,29.5,28.3,00.0,37.8,31.1,11.6,0000.0,0012.88,0004.48,0002.32
2023-04-29 20:45:00,,0831.6,5.00,0.00,29.5,28.3,00.0,37.8,31.1,11.4,0000.0,0013.27,0004.54,0002.35
2023-04-29 20:46:00,,0831.7,5.00,0.00,29.5,28.3,00.0,37.8,31.1,11.0,0000.0,0014.17,0004.52,0002.35
2023-04-29 20:47:00,,0831.6,5.01,0.00,29.6,28.4,00.0,37.8,31.1,11.1,0000.0,0013.62,0004.46,0002.34
2023-04-29 20:48:00,,0831.6,5.00,0.00,29.6,28.4,00.0,37.9,31.1,11.0,0000.0,0013.12,0004.48,0002.35
2023-04-29 20:49:00,,0831.6,4.99,0.00,29.6,28.4,00.0,37.9,31.1,11.1,0000.0,0013.25,0004.53,0002.37
2023-04-29 20:50:00,,0831.6,5.00,0.00,29.6,28.4,00.0,37.9,31.1,11.3,0000.0,0013.16,0004.50,0002.35
2023-04-29 20:51:00,,0831.6,5.00,0.00,29.6,28.5,00.0,37.9,31.2,11.4,0000.0,0013.10,0004.47,0002.35
2023-04-29 20:52:00,,0831.5,5.01,0.00,29.6,28.5,00.0,37.9,31.2,11.2,0000.0,0013.24,0004.50,0002.36
2023-04-29 20:53:00,,0831.6,5.00,0.00,29.6,28.5,00.0,37.9,31.2,11.1,0000.0,0012.87,0004.50,0002.37
2023-04-29 20:54:00,,0831.6,5.00,0.00,29.6,28.5,00.0,37.9,31.2,11.1,0000.0,0012.98,0004.53,0002.38
2023-04-29 20:55:00,,0831.5,4.99,0.00,29.6,28.5,00.0,38.0,31.2,11.0,0000.0,0013.11,0004.55,0002.40
2023-04-29 20:56:00,,0831.6,5.00,0.00,29.7,28.5,00.0,38.0,31.2,11.3,0000.0,0013.29,0004.52,0002.38
2023-04-29 20:57:00,,0831.6,5.00,0.00,29.7,28.6,00.0,38.0,31.2,11.1,0000.0,0012.35,0004.50,0002.39
2023-04-29 20:58:00,,0831.6,4.99,0.00,29.7,28.6,00.0,38.0,31.3,11.2,0000.0,0012.00,0004.57,0002.39
2023-04-29 20:59:00,,0831.6,4.99,0.00,29.7,28.6,00.0,38.0,31.3,11.4,0000.0,0011.98,0004.58,0002.38
